Weather History for Breckenridge, TX

Change the Weather History Date:

Monday, January 28, 2013

  Actual Average (KABI) Record (KABI)
Temperature  
Mean Temperature 71 °F 46 °F  
Max Temperature 82 °F 58 °F 82 °F (1970)
Min Temperature 60 °F 34 °F 10 °F (1895)
Degree Days  
Heating Degree Days 0 19  
Month to date heating degree days 567  
Since 1 July heating degree days 1612  
Cooling Degree Days 6 0  
Month to date cooling degree days 0  
Year to date cooling degree days 0  
Growing Degree Days 21 (Base 50)    
Moisture  
Dew Point 59 °F    
Average Humidity 69    
Maximum Humidity 100    
Minimum Humidity 37    
Precipitation  
Precipitation 0.00 in 0.03 in 2.64 in (2010)
Month to date precipitation 0.90  
Year to date precipitation 0.90  
Sea Level Pressure  
Sea Level Pressure 29.88 in    
Wind  
Wind Speed 13 mph (South)    
Max Wind Speed 24 mph    
Max Gust Speed 33 mph    
Visibility 10 miles    
Events      
T = Trace of Precipitation, MM = Missing Value Source: NWS Daily Summary

Daily Weather History Graph

Daily Weather History Graph

Search for Another Location

Airport:

Trip Planner

Search our weather history database for the weather conditions in past years. The results will help you decide how hot, cold, wet, or windy it might be!

Date:

Astronomy

Jan. 28, 2013 Rise Set
Actual Time 7:32 AM CST 6:04 PM CST
Civil Twilight 7:06 AM CST 6:30 PM CST
Nautical Twilight 6:37 AM CST 7:00 PM CST
Astronomical Twilight 6:07 AM CST 7:29 PM CST
Moon 7:51 PM CST (1/28) 8:07 AM CST (1/28)
Length of Visible Light 11h 24m
Length of Day
10h 32m
Full, 98% of the Moon is Illuminated
Jan 28
Full
Feb 3
Last Quarter
Feb 10
New
Feb 17
First Quarter
Feb 25
Full

Hourly Weather History & Observations

Time (CST) Temp. Heat Index Dew Point Humidity Pressure Visibility Wind Dir Wind Speed Gust Speed Precip Events Conditions
12:15 AM 66.2 °F - 57.2 °F 73% 29.95 in 10.0 mi South 13.8 mph 18.4 mph N/A   Clear
12:35 AM 66.2 °F - 57.2 °F 73% 29.96 in 10.0 mi South 11.5 mph 18.4 mph N/A   Clear
12:55 AM 64.4 °F - 57.2 °F 77% 29.96 in 10.0 mi South 15.0 mph - N/A   Clear
1:15 AM 64.4 °F - 57.2 °F 77% 29.96 in 10.0 mi South 11.5 mph - N/A   Clear
1:35 AM 64.4 °F - 59.0 °F 83% 29.96 in 10.0 mi South 11.5 mph - N/A   Clear
1:55 AM 64.4 °F - 59.0 °F 83% 29.96 in 10.0 mi South 10.4 mph - N/A   Clear
2:15 AM 64.4 °F - 59.0 °F 83% 29.96 in 10.0 mi South 9.2 mph - N/A   Clear
2:35 AM 64.4 °F - 59.0 °F 83% 29.95 in 10.0 mi South 10.4 mph - N/A   Clear
2:55 AM 62.6 °F - 59.0 °F 88% 29.95 in 10.0 mi SSE 8.1 mph - N/A   Clear
3:15 AM 62.6 °F - 60.8 °F 94% 29.95 in 10.0 mi South 8.1 mph - N/A   Clear
3:35 AM 62.6 °F - 60.8 °F 94% 29.95 in 10.0 mi SSE 8.1 mph - N/A   Clear
3:55 AM 60.8 °F - 60.8 °F 100% 29.94 in 10.0 mi SSE 8.1 mph - N/A   Scattered Clouds
4:15 AM 60.8 °F - 60.8 °F 100% 29.94 in 10.0 mi SSE 6.9 mph - N/A   Clear
4:35 AM 60.8 °F - 60.8 °F 100% 29.94 in 10.0 mi South 8.1 mph - N/A   Scattered Clouds
4:55 AM 62.6 °F - 60.8 °F 94% 29.93 in 10.0 mi South 8.1 mph - N/A   Mostly Cloudy
5:15 AM 62.6 °F - 60.8 °F 94% 29.93 in 10.0 mi SSE 6.9 mph - N/A   Overcast
5:35 AM 64.4 °F - 60.8 °F 88% 29.93 in 10.0 mi SSE 9.2 mph - N/A   Overcast
5:55 AM 64.4 °F - 62.6 °F 94% 29.93 in 10.0 mi SSE 8.1 mph - N/A   Overcast
6:15 AM 64.4 °F - 62.6 °F 94% 29.93 in 10.0 mi SSE 8.1 mph - N/A   Mostly Cloudy
6:35 AM 64.4 °F - 62.6 °F 94% 29.94 in 10.0 mi South 6.9 mph - N/A   Overcast
6:55 AM 66.2 °F - 62.6 °F 88% 29.95 in 10.0 mi South 8.1 mph - N/A   Overcast
7:15 AM 66.2 °F - 62.6 °F 88% 29.95 in 10.0 mi South 6.9 mph - N/A   Overcast
7:35 AM 66.2 °F - 62.6 °F 88% 29.96 in 10.0 mi SSE 5.8 mph - N/A   Overcast
7:55 AM 66.2 °F - 62.6 °F 88% 29.96 in 10.0 mi South 5.8 mph - N/A   Overcast
8:15 AM 66.2 °F - 62.6 °F 88% 29.96 in 10.0 mi South 4.6 mph - N/A   Overcast
8:35 AM 66.2 °F - 62.6 °F 88% 29.96 in 10.0 mi SSE 5.8 mph - N/A   Overcast
8:55 AM 68.0 °F - 62.6 °F 83% 29.96 in 10.0 mi South 8.1 mph - N/A   Overcast
9:15 AM 68.0 °F - 62.6 °F 83% 29.96 in 10.0 mi South 12.7 mph 18.4 mph N/A   Overcast
9:35 AM 68.0 °F - 60.8 °F 78% 29.95 in 10.0 mi North - - N/A   Overcast
9:55 AM 69.8 °F - 60.8 °F 73% 29.95 in 10.0 mi South 13.8 mph 17.3 mph N/A   Overcast
10:15 AM 71.6 °F - 60.8 °F 69% 29.94 in 10.0 mi South 21.9 mph 26.5 mph N/A   Overcast
10:35 AM 71.6 °F - 60.8 °F 69% 29.94 in 10.0 mi South 19.6 mph 26.5 mph N/A   Overcast
10:55 AM 71.6 °F - 60.8 °F 69% 29.94 in 10.0 mi South 20.7 mph 28.8 mph N/A   Overcast
11:15 AM 73.4 °F - 60.8 °F 65% 29.94 in 10.0 mi South 24.2 mph 31.1 mph N/A   Overcast
11:35 AM 73.4 °F - 59.0 °F 61% 29.93 in 10.0 mi SSW 21.9 mph 31.1 mph N/A   Overcast
12:35 PM 78.8 °F - 57.2 °F 47% 29.88 in 10.0 mi SSW 17.3 mph 32.2 mph N/A   Overcast
12:55 PM 80.6 °F 80.5 °F 55.4 °F 42% 29.87 in 10.0 mi SSW 23.0 mph 33.4 mph N/A   Mostly Cloudy
1:15 PM 80.6 °F 80.5 °F 55.4 °F 42% 29.85 in 10.0 mi SSW 19.6 mph 29.9 mph N/A   Scattered Clouds
1:35 PM 80.6 °F 80.5 °F 55.4 °F 42% 29.84 in 10.0 mi SSW 15.0 mph 27.6 mph N/A   Mostly Cloudy
1:55 PM 80.6 °F 80.5 °F 55.4 °F 42% 29.84 in 10.0 mi SSW 23.0 mph 32.2 mph N/A   Mostly Cloudy
2:15 PM 80.6 °F 80.5 °F 55.4 °F 42% 29.83 in 10.0 mi SSW 23.0 mph 29.9 mph N/A   Mostly Cloudy
2:35 PM 80.6 °F 80.5 °F 55.4 °F 42% 29.81 in 10.0 mi SSW 16.1 mph 29.9 mph N/A   Mostly Cloudy
2:55 PM 82.4 °F 81.7 °F 55.4 °F 39% 29.81 in 10.0 mi SW 23.0 mph 32.2 mph N/A   Mostly Cloudy
3:15 PM 82.4 °F 81.7 °F 55.4 °F 39% 29.81 in 10.0 mi SW 21.9 mph 27.6 mph N/A   Scattered Clouds
3:35 PM 80.6 °F 80.5 °F 55.4 °F 42% 29.80 in 10.0 mi SSW 17.3 mph 25.3 mph N/A   Mostly Cloudy
3:55 PM 80.6 °F 80.5 °F 55.4 °F 42% 29.79 in 10.0 mi SSW 17.3 mph 23.0 mph N/A   Mostly Cloudy
4:15 PM 80.6 °F 80.5 °F 55.4 °F 42% 29.79 in 10.0 mi SSW 18.4 mph 26.5 mph N/A   Mostly Cloudy
4:35 PM 82.4 °F 81.4 °F 53.6 °F 37% 29.79 in 10.0 mi SSW 18.4 mph 25.3 mph N/A   Mostly Cloudy
4:55 PM 80.6 °F 80.5 °F 55.4 °F 42% 29.79 in 10.0 mi SSW 15.0 mph 26.5 mph N/A   Overcast
5:15 PM 78.8 °F - 55.4 °F 44% 29.80 in 10.0 mi South 17.3 mph 25.3 mph N/A   Overcast
5:35 PM 78.8 °F - 55.4 °F 44% 29.80 in 10.0 mi South 17.3 mph 24.2 mph N/A   Overcast
5:55 PM 77.0 °F - 55.4 °F 47% 29.79 in 10.0 mi South 15.0 mph 24.2 mph N/A   Scattered Clouds
6:15 PM 77.0 °F - 55.4 °F 47% 29.79 in 10.0 mi South 16.1 mph 24.2 mph N/A   Clear
6:35 PM 77.0 °F - 57.2 °F 50% 29.79 in 10.0 mi SSE 12.7 mph 19.6 mph N/A   Clear
6:55 PM 75.2 °F - 57.2 °F 53% 29.80 in 10.0 mi South 15.0 mph 21.9 mph N/A   Clear
7:15 PM 73.4 °F - 57.2 °F 57% 29.80 in 10.0 mi South 15.0 mph 23.0 mph N/A   Clear
7:35 PM 73.4 °F - 57.2 °F 57% 29.81 in 10.0 mi South 15.0 mph 20.7 mph N/A   Clear
7:55 PM 73.4 °F - 57.2 °F 57% 29.82 in 10.0 mi South 15.0 mph 20.7 mph N/A   Clear
8:15 PM 71.6 °F - 57.2 °F 60% 29.82 in 10.0 mi South 13.8 mph 23.0 mph N/A   Clear
8:35 PM 71.6 °F - 57.2 °F 60% 29.82 in 10.0 mi South 12.7 mph - N/A   Clear
8:55 PM 71.6 °F - 57.2 °F 60% 29.82 in 10.0 mi South 11.5 mph 18.4 mph N/A   Clear
9:15 PM 69.8 °F - 59.0 °F 68% 29.82 in 10.0 mi South 13.8 mph 18.4 mph N/A   Clear
9:35 PM 69.8 °F - 59.0 °F 68% 29.81 in 10.0 mi South 12.7 mph 23.0 mph N/A   Clear
9:55 PM 69.8 °F - 59.0 °F 68% 29.81 in 10.0 mi South 17.3 mph 23.0 mph N/A   Clear
10:15 PM 69.8 °F - 59.0 °F 68% 29.80 in 10.0 mi South 13.8 mph 20.7 mph N/A   Clear
10:35 PM 69.8 °F - 59.0 °F 68% 29.80 in 10.0 mi SSE 15.0 mph 18.4 mph N/A   Clear
10:55 PM 69.8 °F - 59.0 °F 68% 29.80 in 10.0 mi South 13.8 mph 17.3 mph N/A   Clear
11:15 PM 68.0 °F - 60.8 °F 78% 29.80 in 10.0 mi South 16.1 mph 19.6 mph N/A   Clear
11:35 PM 68.0 °F - 60.8 °F 78% 29.80 in 10.0 mi South 12.7 mph 20.7 mph N/A   Clear
11:55 PM 68.0 °F - 60.8 °F 78% 29.79 in 10.0 mi SSE 15.0 mph 20.7 mph N/A   Clear